STARLINK-32760 (62568 NORAD) Tracking and Keplerian Element Data

This shows tracking and keplerian element data for the satellite.

Feedback or suggestion? Click here.




ElementValue
Catalog62568
NameSTARLINK-32760
Epoch Orbit493
Epoch Day34.83335648
Epoch Year2025
RAAN29.5492
Inclination43.0005
Eccentricity0.0001811
Argument of Perigee261.2533
Mean Anonmoly21.6358
Mean Motion15.50502741
Decay Rate0.00088889
L11 62568U 25006Q 25034.83335648 .00088889 00000+0 15079-2 0 9998
L22 62568 43.0005 29.5492 0001811 261.2533 21.6358 15.50502741 4936



Live tracking and technical data element details for STARLINK-32760 (NORAD 62568). STARLINK-32760 can be tracked NOW for your location showing map with azimuth and elevation plus other details from your city location.







IsCatalogInMostPopularTable: catalog: 62568, numindb: 15
Update: records affected: 1



GetName: 62568 STARLINK-32760

Hit Count: updated at: Sun, 18 May 2025 21:59:10 GMT